Location: Holmes Observatory
(37.1039°N, 122.0513°W)
Time: 12:23:07
(UTC-07:00)

Daily predictions for brighter satellites

Satellite Brightness Start Highest point End
(mag) Time Altitude Azimuth Time Altitude Azimuth Time Altitude Azimuth
Cosmos 1727 Rocket 4.1 20:50:54 10° S 20:57:12 80° E 21:03:34 10° N
ATLAS 2A CENTAUR R/B 4.4 20:50:08 10° WSW 20:57:13 50° S 21:24:00 10° ESE
Cosmos 2084 4.3 20:59:43 10° SW 21:03:40 51° NW 21:07:27 10° NNE
Okean 3 Rocket 3.7 21:00:50 10° S 21:05:14 58° E 21:09:38 10° NNE
Spot 1 4.4 21:04:41 10° SE 21:08:37 47° ENE 21:12:42 10° N
Cosmos 1570 Rocket 4.2 21:03:42 10° N 21:08:58 63° ENE 21:14:09 10° SSE
Cosmos 1766 Rocket 4.5 21:06:37 10° SSE 21:10:21 29° E 21:14:08 10° NNE
USA 32 4.1 21:06:30 10° S 21:11:44 86° E 21:17:00 10° N
Helios 1A 3.0 21:09:00 10° SSE 21:13:05 63° ENE 21:17:12 10° N
CZ-4B DEB 3.2 21:11:16 10° SE 21:14:03 38° ENE 21:16:51 10° N
Cosmos 1184 Rocket 4.3 21:11:01 10° SSW 21:14:13 41° WNW 21:17:27 10° N
Cosmos 1242 Rocket 3.1 21:13:20 10° N 21:16:54 43° ENE 21:20:25 10° SSE
Cosmos 1356 Rocket 3.6 21:13:03 10° S 21:17:13 57° E 21:21:27 10° NNE
Cosmos 1674 2.7 21:15:43 10° S 21:19:25 62° E 21:23:08 10° NNE
Delta 2 Rocket 4.3 21:16:11 10° WSW 21:21:34 53° SSE 21:27:13 10° E
Meteor 1-21 Rocket 4.3 21:16:22 10° S 21:21:57 63° E 21:27:28 10° NNE
Cosmos 2237 Rocket 4.0 21:17:59 10° NW 21:22:40 28° WSW 21:27:22 10° SSW
USA 234 4.0 21:19:28 10° ENE 21:25:01 29° SE 21:30:31 10° S
SAR-Lupe-1 4.4 21:22:42 11° SSE 21:26:01 48° ENE 21:29:30 10° N
ERS-1 Rocket 3.5 21:21:51 11° SE 21:26:25 42° ENE 21:31:09 10° N
RESURS DK-1 3.3 21:23:42 10° N 21:27:30 33° ENE 21:30:33 14° ESE
ARGOS 4.2 21:28:10 13° SE 21:32:18 31° ENE 21:36:59 10° N
SJ-11-01 4.5 21:27:39 10° S 21:32:22 75° WSW 21:37:09 10° NNW
Cosmos 1603 4.2 21:27:44 10° N 21:33:11 46° ENE 21:37:34 15° SE
Cosmos 220 Rocket 4.3 21:34:42 10° S 21:38:54 45° ESE 21:43:06 10° NNE
Cosmos 1939 Rocket 3.5 21:35:05 10° S 21:38:59 55° W 21:43:00 10° NNW
Cosmos 1908 3.2 21:35:30 10° N 21:39:23 86° W 21:43:08 10° S
Resurs 01 Rocket 4.1 21:36:56 10° SW 21:40:10 20° W 21:43:26 10° NW
Cosmos 2228 Rocket 4.3 21:38:25 10° NNE 21:42:22 28° ENE 21:44:46 18° ESE
Cosmos 371 Rocket 4.2 21:38:41 10° N 21:43:06 35° ENE 21:46:05 18° ESE
KORONAS-FOTON 3.7 21:39:58 10° S 21:43:46 86° E 21:47:34 10° N
Cosmos 1943 4.3 21:40:59 10° N 21:45:55 30° ENE 21:49:30 16° ESE
GPS 2-05 Rocket1 2.7 21:45:51 10° WSW 21:48:52 50° S 21:50:28 23° ESE
SL-16 R/B 3.3 21:44:13 10° NW 21:49:30 42° WSW 21:54:45 10° S
ERBS 3.5 21:46:52 10° NNW 21:49:58 33° NE 21:51:46 19° E
Cosmos 1076 Rocket 4.5 21:51:05 10° SSW 21:55:18 49° W 21:59:32 10° N
Cosmos 1459 Rocket 4.1 21:51:43 10° N 21:57:59 77° W 22:04:07 10° S
Abrixas rocket 3.3 21:57:52 10° NW 22:00:55 37° NNE 22:02:33 21° E
H-2A R/B 2.9 21:58:02 21° ESE 22:00:59 36° ENE 22:05:55 10° N
YAOGAN 6 3.9 22:01:01 10° SSW 22:04:22 37° W 22:07:49 10° NNW
Cosmos 2151 3.8 22:04:24 27° SE 22:05:44 33° E 22:09:37 10° NNE
SPOT 5 3.2 22:03:27 24° SE 22:06:14 56° ENE 22:11:15 10° N
SL-08 RB Rocket 4.1 22:03:59 25° SE 22:06:16 48° ENE 22:10:43 10° N
Lacrosse 5 1.8 22:02:25 10° NW 22:07:31 90° SW 22:10:17 27° SE
Cosmos 1408 Rocket 4.1 22:04:17 10° SSW 22:08:31 57° W 22:12:47 10° N
Cosmos 1626 3.3 22:12:41 25° E 22:12:44 25° E 22:15:51 10° NNE
Cosmos 1356 4.0 22:12:38 36° ESE 22:13:00 38° E 22:16:16 10° NNE
Meteor 2-10 4.2 22:08:36 10° N 22:14:15 68° E 22:17:34 26° SSE
Cosmos 1703 4.3 22:14:36 27° E 22:14:56 28° E 22:18:21 10° NNE
NOAA 11 4.3 22:11:03 18° S 22:15:08 73° WSW 22:20:35 10° NNW
Cosmos 2123 Rocket 3.9 22:10:37 11° S 22:16:38 88° E 22:22:53 10° N
Cosmos 1726 2.2 22:14:43 10° NNW 22:18:22 70° W 22:20:01 30° S
MetOp-B 4.2 22:16:00 21° S 22:19:36 78° WSW 22:24:59 10° NNW
Tiangong 1 2.2 22:17:16 10° NW 22:19:52 33° NNE 22:20:43 26° NE
Abrixas 4.0 22:20:36 10° W 22:23:06 33° NNW 22:25:37 10° NE
Cosmos 1354 Rocket 4.1 22:25:52 31° SSE 22:28:06 52° ESE 22:33:11 10° NNE
Cosmos 1814 Rocket 4.1 22:24:06 10° NNW 22:29:27 79° WSW 22:32:02 31° S
Cosmos 1500 Rocket 3.5 22:27:47 31° S 22:29:52 81° E 22:34:20 10° N
Terra 2.8 22:29:25 27° E 22:30:40 32° ENE 22:34:52 10° N
Cosmos 1763 Rocket 3.3 22:29:25 10° NNW 22:34:32 90° N 22:36:32 38° SSE
Cosmos 332 Rocket 4.3 22:29:55 10° NNW 22:34:42 54° WSW 22:37:06 28° SSW
Meteor 1-11 4.2 22:31:12 24° S 22:34:53 80° E 22:40:43 10° N
Cosmos 841 Rocket 3.5 22:29:40 10° NNW 22:34:54 70° ENE 22:36:47 39° SE
Cosmos 1300 3.1 22:31:14 10° NNW 22:34:59 57° W 22:36:21 35° SSW
Cosmos 1486 Rocket 4.4 22:32:19 10° SSW 22:37:31 62° WNW 22:42:47 10° N
Cosmos 304 Rocket 4.5 22:34:51 10° N 22:39:20 38° ENE 22:40:25 34° E
IGS 5A 4.3 22:39:22 33° E 22:39:49 34° ENE 22:43:35 10° N
Cosmos 2263 Rocket 2.2 22:34:28 10° SSW 22:40:01 81° WNW 22:45:38 10° NNE
OAO 1 Rocket 4.4 22:35:11 10° W 22:40:30 64° S 22:42:12 41° SE
CARTOSAT-1 4.2 22:40:30 36° E 22:41:07 38° ENE 22:45:08 10° N
Cosmos 1725 Rocket 4.2 22:35:36 10° NNW 22:41:48 70° W 22:45:34 25° S
Cosmos 1805 Rocket 4.3 22:49:44 36° E 22:49:44 36° E 22:53:26 10° NNE
DMSP B5D2-2 3.9 22:46:05 10° NNE 22:51:20 81° ESE 22:53:20 39° S
Cosmos 1151 Rocket 3.0 22:47:54 10° N 22:52:18 79° W 22:53:14 54° S
Meteor 1-27 4.2 22:47:49 10° N 22:53:39 89° W 22:55:45 41° S
SWAS 4.3 22:55:16 68° SE 22:55:34 71° ESE 22:59:51 10° NNE
SPOT 1/Viking Rocket 3.7 22:54:21 37° S 22:56:16 65° WSW 23:01:24 10° NNW
Cosmos 1515 Rocket 4.3 22:56:55 10° NNW 23:01:03 45° W 23:02:18 35° SW
H-2A R/B 2.4 23:01:49 48° E 23:01:56 48° ENE 23:06:02 10° N
Delta 2 Rocket 4.0 22:58:35 10° W 23:04:21 78° S 23:06:28 41° E
Cosmos 2058 3.5 23:03:10 38° SW 23:04:24 52° W 23:08:32 10° N
Cosmos 1464 Rocket 4.3 23:01:43 10° N 23:07:41 49° E 23:09:02 42° ESE
Cosmos 1455 2.4 23:03:56 10° N 23:07:19 60° NE 23:07:19 60° NE
USA 234 3.5 23:01:46 10° NE 23:08:16 69° NW 23:14:45 10° WSW
Cosmos 836 Rocket 4.4 23:04:00 10° NNW 23:09:19 81° ENE 23:10:17 60° SE
Cosmos 1844 Rocket 3.4 23:13:19 36° E 23:13:19 36° E 23:17:50 10° NE
CZ-4C R/B 1.9 23:16:27 64° SE 23:16:50 66° ESE 23:22:31 10° NE
Cosmos 540 Rocket 3.3 23:22:33 10° NNW 23:27:43 81° WSW 23:28:08 74° SSW
CZ-4B R/B 3.4 23:24:11 10° NNE 23:29:26 71° ESE 23:29:37 70° ESE
Cosmos 1943 4.2 23:24:51 10° NW 23:29:56 35° WSW 23:31:19 31° SW
Cosmos 968 Rocket 3.5 23:32:29 67° E 23:32:29 67° E 23:37:36 10° NNE
Cosmos 1869 4.0 23:33:48 10° N 23:36:46 49° N 23:36:46 49° N
H-2A R/B 3.7 23:38:39 22° SW 23:40:24 26° W 23:44:53 10° NW
Tsikada Rocket 4.1 23:41:15 55° ESE 23:41:53 58° E 23:48:05 10° NNE
Sich 1 3.3 23:42:47 62° N 23:42:47 62° N 23:46:25 10° N
CZ-2C R/B 3.7 23:41:30 10° NNE 23:45:10 30° ENE 23:45:10 30° ENE
Cosmos 1400 Rocket 4.2 23:49:48 33° NE 23:49:48 33° NE 23:52:19 10° NNE
Meteor 2-10 Rocket 4.4 23:43:44 10° N 23:48:51 39° ENE 23:48:56 39° E
Lacrosse 5 4.2 23:48:09 10° W 23:49:29 11° WSW 23:49:29 11° WSW
CZ-4C R/B 4.0 23:51:51 59° N 23:51:51 59° N 23:55:30 10° N
